sat.trackr.live / text

‹ back to catalog

STARLINK-5121

NORAD 53993 · 2022-125AF

PAYLOAD ACTIVE UNKNOWN

§ Identity

Operator
Country
US
Launch date
2022-10-05
Launch site
AFWTR
Launch vehicle
Mass (kg)
RCS (m²)

Purposes: comms

External: N2YO · Heavens-Above · Gunter

§ Orbital elements

Epoch: 2026-05-25T04:19:59.291040Z

Period
95.44 min
Inclination
53.2153°
Eccentricity
0.0001503
Mean motion
15.08830825 rev/d
Perigee alt
538.7 km
Apogee alt
540.8 km
Semi-major
6,917.9 km
B*
-1.3920e-5
RAAN
225.4917°
Arg perigee
91.8800°
Mean anomaly
268.2365°
Rev number
20,107

§ Raw data

STARLINK-51211 53993U 22125AF  26145.18054735 -.00000509  00000+0 -13920-4 0  99962 53993  53.2153 225.4917 0001503  91.8800 268.2365 15.08830825201077

JSON: /api/v1/satellites/53993 · /tle

For live sub-satellite position, see the globe view (requires WebGL).

§ Visibility from observer

Set your observer location to see the next 7 days of passes ≥ 10°. The values pass through the URL so the page stays shareable.

No JS? Fill the form by hand. The geolocation button needs JavaScript.